King Salmon, AK

1:19 PM AKDT on September 27, 2016 (GMT -0800)
Port Heiden

Weather History for PAPH - February, 2013

Change the Weather History Date:

Sunday, February 10, 2013

  Actual Average Record
Temperature  
Mean Temperature 24 °F -  
Max Temperature 33 °F 30 °F 48 °F (2001)
Min Temperature 15 °F 20 °F -13 °F (1999)
Degree Days  
Heating Degree Days 41    
Moisture  
Dew Point 18 °F    
Average Humidity 73    
Maximum Humidity 86    
Minimum Humidity 64    
Precipitation  
Precipitation 0.08 in - - ()
Sea Level Pressure  
Sea Level Pressure 29.40 in    
Wind  
Wind Speed 19 mph (WSW)    
Max Wind Speed 33 mph    
Max Gust Speed 43 mph    
Visibility 9 miles    
Events      
Averages and records for this station are not official NWS values.
T = Trace of Precipitation, MM = Missing Value Source: NWS Daily Summary

Daily Weather History Graph

Daily Weather History Graph

Search for Another Location

Airport or City:

Trip Planner

Search our weather history database for the weather conditions in past years. The results will help you decide how hot, cold, wet, or windy it might be!

Date:

Astronomy

Feb. 10, 2013 Rise Set
Actual Time 9:12 AM AKST 6:25 PM AKST
Civil Twilight 8:32 AM AKST 7:06 PM AKST
Nautical Twilight 7:47 AM AKST 7:51 PM AKST
Astronomical Twilight 7:03 AM AKST 8:35 PM AKST
Moon 8:51 AM AKST (2/10) 7:52 PM AKST (2/10)
Length of Visible Light 10h 33m
Length of Day
9h 12m
New Moon, 0% of the Moon is Illuminated
Feb 10
New Moon
Feb 17
First Quarter
Feb 25
Full
Mar 4
Last Quarter
Mar 11
New

Hourly Weather History & Observations

Time (AKST) Temp. Windchill Dew Point Humidity Pressure Visibility Wind Dir Wind Speed Gust Speed Precip Events Conditions
12:16 AM 30.2 °F 14.5 °F 26.6 °F 86% 29.03 in 10.0 mi SW 33.4 mph 42.6 mph 0.01 in   Overcast
12:36 AM 30.2 °F 15.4 °F 23.0 °F 75% 29.04 in 9.0 mi SW 28.8 mph 39.1 mph 0.01 in   Overcast
12:56 AM 30.2 °F 15.4 °F 24.8 °F 80% 29.07 in 10.0 mi SW 28.8 mph 34.5 mph 0.01 in   Overcast
1:16 AM 30.2 °F 15.4 °F 24.8 °F 80% 29.08 in 6.0 mi SW 28.8 mph 35.7 mph N/A   Overcast
1:36 AM 30.2 °F 16.5 °F 23.0 °F 75% 29.10 in 9.0 mi SW 24.2 mph 33.4 mph N/A   Overcast
1:56 AM 30.2 °F 15.4 °F 24.8 °F 80% 29.10 in 10.0 mi SW 28.8 mph 32.2 mph N/A   Overcast
2:16 AM 30.2 °F 16.5 °F 24.8 °F 80% 29.11 in 10.0 mi SW 24.2 mph 28.8 mph N/A   Overcast
2:36 AM 28.4 °F 14.1 °F 23.0 °F 80% 29.12 in 10.0 mi SW 24.2 mph - 0.01 in   Overcast
2:56 AM 28.4 °F 14.7 °F 23.0 °F 80% 29.14 in 10.0 mi SSW 21.9 mph 28.8 mph 0.01 in   Mostly Cloudy
3:16 AM 28.4 °F 14.7 °F 21.2 °F 74% 29.14 in 10.0 mi SW 21.9 mph 29.9 mph N/A   Partly Cloudy
3:36 AM 28.4 °F 15.1 °F 21.2 °F 74% 29.15 in 10.0 mi SW 20.7 mph - N/A   Scattered Clouds
3:56 AM 28.4 °F 15.4 °F 23.0 °F 80% 29.16 in 10.0 mi SW 19.6 mph - N/A   Mostly Cloudy
4:16 AM 28.4 °F 15.8 °F 23.0 °F 80% 29.16 in 10.0 mi SW 18.4 mph - 0.01 in   Overcast
4:36 AM 28.4 °F 15.1 °F 24.8 °F 86% 29.17 in 10.0 mi SW 20.7 mph 25.3 mph 0.02 in   Overcast
4:56 AM 28.4 °F 13.8 °F 21.2 °F 74% 29.16 in 10.0 mi SW 25.3 mph 28.8 mph 0.02 in   Overcast
5:16 AM 28.4 °F 14.1 °F 19.4 °F 69% 29.17 in 10.0 mi SW 24.2 mph 32.2 mph N/A   Overcast
5:36 AM 28.4 °F 14.7 °F 21.2 °F 74% 29.18 in 10.0 mi SW 21.9 mph 28.8 mph N/A   Overcast
5:56 AM 28.4 °F 14.7 °F 21.2 °F 74% 29.18 in 10.0 mi WSW 21.9 mph - 0.01 in   Overcast
6:16 AM 28.4 °F 15.4 °F 19.4 °F 69% 29.19 in 10.0 mi SW 19.6 mph 26.5 mph N/A   Overcast
6:36 AM 28.4 °F 15.4 °F 19.4 °F 69% 29.21 in 10.0 mi SW 19.6 mph - N/A   Overcast
6:56 AM 28.4 °F 15.8 °F 19.4 °F 69% 29.22 in 10.0 mi SW 18.4 mph - N/A   Overcast
7:16 AM 28.4 °F 17.5 °F 21.2 °F 74% 29.22 in 10.0 mi SSW 13.8 mph - N/A   Overcast
7:36 AM 28.4 °F 18.0 °F 19.4 °F 69% 29.23 in 10.0 mi SW 12.7 mph - N/A   Overcast
7:56 AM 28.4 °F 18.0 °F 23.0 °F 80% 29.24 in 10.0 mi SW 12.7 mph - N/A   Overcast
8:16 AM 28.4 °F 18.5 °F 19.4 °F 69% 29.25 in 10.0 mi SW 11.5 mph - N/A   Overcast
8:36 AM 28.4 °F 16.6 °F 19.4 °F 69% 29.26 in 10.0 mi SW 16.1 mph - N/A   Overcast
8:56 AM 28.4 °F 17.0 °F 19.4 °F 69% 29.26 in 10.0 mi WSW 15.0 mph - N/A   Overcast
9:16 AM 28.4 °F 15.1 °F 21.2 °F 74% 29.27 in 10.0 mi SW 20.7 mph - N/A   Overcast
9:36 AM 28.4 °F 15.8 °F 19.4 °F 69% 29.29 in 10.0 mi WSW 18.4 mph - N/A   Overcast
9:56 AM 28.4 °F 16.6 °F 21.2 °F 74% 29.30 in 10.0 mi WSW 16.1 mph - N/A   Overcast
10:16 AM 28.4 °F 15.8 °F 21.2 °F 74% 29.31 in 10.0 mi WSW 18.4 mph 21.9 mph N/A   Overcast
10:36 AM 28.4 °F 15.1 °F 21.2 °F 74% 29.33 in 8.0 mi WSW 20.7 mph 25.3 mph N/A   Overcast
10:56 AM 28.4 °F 18.0 °F 19.4 °F 69% 29.34 in 5.0 mi WNW 12.7 mph - N/A   Overcast
11:16 AM 26.6 °F 14.7 °F 19.4 °F 74% 29.36 in 10.0 mi WNW 15.0 mph - N/A   Overcast
11:36 AM 26.6 °F 15.2 °F 17.6 °F 69% 29.37 in 8.0 mi WNW 13.8 mph - N/A   Overcast
11:56 AM 26.6 °F 14.7 °F 19.4 °F 74% 29.39 in 10.0 mi WNW 15.0 mph - N/A   Overcast
12:16 PM 26.6 °F 15.2 °F 19.4 °F 74% 29.40 in 10.0 mi WNW 13.8 mph - N/A   Overcast
12:36 PM 24.8 °F 11.9 °F 19.4 °F 80% 29.42 in 10.0 mi WNW 16.1 mph - N/A   Overcast
12:56 PM 24.8 °F 12.9 °F 19.4 °F 80% 29.44 in 9.0 mi WNW 13.8 mph - N/A   Overcast
1:16 PM 24.8 °F 11.5 °F 17.6 °F 74% 29.45 in 10.0 mi WNW 17.3 mph 20.7 mph N/A   Overcast
1:36 PM 24.8 °F 12.9 °F 15.8 °F 69% 29.47 in 7.0 mi NW 13.8 mph 19.6 mph N/A   Overcast
1:56 PM 24.8 °F 13.4 °F 15.8 °F 69% 29.48 in 5.0 mi WNW 12.7 mph - 0.01 in   Overcast
2:16 PM 23.0 °F 10.6 °F 15.8 °F 74% 29.50 in 10.0 mi WNW 13.8 mph - N/A   Overcast
2:36 PM 23.0 °F 11.7 °F 17.6 °F 80% 29.51 in 10.0 mi NW 11.5 mph - N/A   Overcast
2:56 PM 23.0 °F 11.1 °F 15.8 °F 74% 29.53 in 10.0 mi NW 12.7 mph - N/A   Overcast
3:16 PM 23.0 °F 12.4 °F 15.8 °F 74% 29.54 in 10.0 mi WNW 10.4 mph - N/A   Overcast
3:36 PM 23.0 °F 13.1 °F 14.0 °F 68% 29.55 in 10.0 mi WNW 9.2 mph - N/A   Overcast
3:56 PM 23.0 °F 11.7 °F 14.0 °F 68% 29.56 in 10.0 mi NW 11.5 mph - N/A   Overcast
4:16 PM 23.0 °F 11.1 °F 14.0 °F 68% 29.57 in 10.0 mi NW 12.7 mph - N/A   Overcast
4:36 PM 21.2 °F 8.9 °F 14.0 °F 74% 29.58 in 9.0 mi NW 12.7 mph - N/A   Overcast
4:56 PM 21.2 °F 8.3 °F 14.0 °F 74% 29.59 in 8.0 mi NW 13.8 mph - N/A   Overcast
5:16 PM 21.2 °F 8.9 °F 12.2 °F 68% 29.60 in 5.0 mi NW 12.7 mph - N/A   Overcast
5:36 PM 21.2 °F 10.1 °F 14.0 °F 74% 29.62 in 5.0 mi NW 10.4 mph - N/A   Overcast
5:56 PM 21.2 °F 10.1 °F 12.2 °F 68% 29.63 in 5.0 mi NNW 10.4 mph - N/A   Overcast
6:16 PM 21.2 °F 10.9 °F 12.2 °F 68% 29.64 in 10.0 mi NNW 9.2 mph - N/A   Overcast
6:36 PM 21.2 °F 13.6 °F 12.2 °F 68% 29.64 in 10.0 mi North 5.8 mph - N/A   Overcast
6:56 PM 19.4 °F 14.3 °F 12.2 °F 74% 29.65 in 10.0 mi NE 3.5 mph - N/A   Overcast
7:16 PM 19.4 °F - 12.2 °F 74% 29.67 in 10.0 mi Calm Calm - N/A   Overcast
7:36 PM 19.4 °F 14.3 °F 12.2 °F 74% 29.68 in 10.0 mi NNE 3.5 mph - N/A   Overcast
7:56 PM 19.4 °F 12.8 °F 12.2 °F 74% 29.67 in 10.0 mi ENE 4.6 mph - N/A   Overcast
8:16 PM 21.2 °F 12.6 °F 14.0 °F 74% 29.67 in 10.0 mi East 6.9 mph - N/A   Overcast
8:36 PM 21.2 °F 10.9 °F 12.2 °F 68% 29.67 in 10.0 mi ESE 9.2 mph - N/A   Overcast
8:56 PM 19.4 °F 10.4 °F 12.2 °F 74% 29.67 in 10.0 mi ESE 6.9 mph - N/A   Overcast
9:16 PM 19.4 °F 12.8 °F 12.2 °F 74% 29.67 in 10.0 mi SE 4.6 mph - N/A   Overcast
9:36 PM 21.2 °F 14.9 °F 12.2 °F 68% 29.68 in 10.0 mi SE 4.6 mph - N/A   Overcast
9:56 PM 21.2 °F 12.6 °F 12.2 °F 68% 29.68 in 10.0 mi South 6.9 mph - N/A   Overcast
10:16 PM 21.2 °F 12.6 °F 14.0 °F 74% 29.68 in 10.0 mi South 6.9 mph - N/A   Overcast
10:36 PM 19.4 °F 14.3 °F 12.2 °F 74% 29.68 in 10.0 mi SSW 3.5 mph - 0.06 in   Mostly Cloudy
10:56 PM 19.4 °F 10.4 °F 12.2 °F 74% 29.68 in 10.0 mi SSE 6.9 mph - 0.06 in   Clear
11:16 PM 17.6 °F 12.3 °F 12.2 °F 79% 29.68 in 10.0 mi ESE 3.5 mph - N/A   Clear
11:36 PM 15.8 °F 6.1 °F 8.6 °F 73% 29.68 in 10.0 mi ENE 6.9 mph - N/A   Clear
11:56 PM 15.8 °F 4.2 °F 8.6 °F 73% 29.68 in 10.0 mi ENE 9.2 mph - N/A   Clear